Location: Eschentzwiller
(47.7125°N, 7.3981°E)
Time: 03:32:33
(UTC+00:00)

S3M - Pass Details

Date: 27 October 2020
Orbit: 950 x 1003 km, 83.0° (Epoch: 01 December)

Event Time Altitude Azimuth Distance (km) Brightness Sun altitude
Rises 18:06:59 0° 181° (S) 3,609 7.0 -18.5°
Reaches altitude 10° 18:09:27 10° 179° (S) 2,670 6.3 -18.9°
Maximum altitude 18:15:32 75° 95° (E) 991 3.8 -19.9°
Drops below altitude 10° 18:21:42 10° 12° (NNE) 2,711 6.2 -21.0°
Sets 18:24:14 0° 11° (N) 3,668 6.9 -21.4°
